Wetbulb
76.43 76.14 75.83 76.56 76.73 76.78 75.53 74.95 77.91 77.75 78.17 78.60 78.24 78.04 79.23 78.13 77.58 76.70 78.60 78.18 78.70 76.61
76.34 76.40 75.17 77.72 77.44 75.59 73.29 74.76 77.04 77.67 77.76 77.75 77.48 78.82 78.69 77.02 77.77 77.32 75.65 77.15 78.38 77.68
76.32 76.31 77.04 78.09 77.68 74.17 76.45 72.19 74.04 77.11 77.73 78.22 77.46 78.11 79.13 77.52 77.41 78.23 77.61 76.49 76.94 76.58
75.71 75.72 76.22 76.47 77.58 78.88 70.69 66.95 72.03 73.13 76.36 77.67 78.14 77.97 77.87 77.48 77.23 74.54 76.27 77.41 77.21 76.07
74.39 75.81 75.77 75.64 75.84 77.66 71.58 68.11 67.99 75.64 76.33 78.26 77.99 77.91 77.63 76.75 75.97 75.27 74.99 75.63 76.32 76.85
75.69 75.87 75.45 75.62 76.11 76.99 76.87 76.14 76.92 78.96 77.77 77.37 76.80 77.49 77.52 76.96 76.34 76.93 75.19 72.30 73.00 75.36
75.47 75.94 75.84 76.54 75.83 76.73 77.49 76.37 76.87 77.10 77.36 77.24 77.40 77.23 76.44 75.84 76.66 77.27 75.91 75.73 74.95 76.14
75.59 77.65 76.15 76.77 77.49 76.52 76.91 76.83 76.78 76.49 76.41 76.47 76.82 75.63 76.17 76.53 76.66 75.36 75.53 76.23 76.09 76.47
72.63 74.90 75.70 76.29 77.19 76.80 76.52 76.50 76.84 76.12 76.15 76.20 75.88 71.35 69.89 74.59 75.77 76.17 75.59 74.25 75.33 76.99
75.17 74.98 75.00 75.80 76.67 76.45 76.07 75.73 76.30 76.04 75.99 75.42 75.86 70.07 67.56 69.96 75.25 75.17 75.34 75.69 75.91 76.11
76.12 76.08 76.18 76.28 76.39 76.90 76.95 76.32 76.25 76.02 75.95 75.66 75.73 67.83 65.18 68.41 75.62 75.32 75.39 75.87 76.15 76.41
73.77 74.50 75.74 75.27 75.62 76.68 75.77 75.85 76.09 76.69 76.32 75.62 75.91 65.05 63.33 66.69 73.57 74.06 74.68 75.45 75.79 74.21
75.02 75.07 74.40 75.25 75.62 76.25 75.69 75.14 74.82 75.65 76.30 73.12 75.94 65.22 61.42 65.96 73.84 74.28 73.57 74.61 68.26 61.65
75.54 74.51 74.87 75.34 76.08 76.04 75.69 75.03 74.90 74.44 75.31 75.34 74.16 74.49 60.01 61.23 73.61 73.46 72.79 73.19 71.40 64.34
MSLP
1014.48 1014.54 1014.78 1014.76 1014.51 1014.62 1014.43 1014.04 1014.41 1015.12 1015.37 1015.81 1016.02 1016.03 1015.95 1016.26 1016.00 1015.53 1015.59 1015.90 1015.98 1016.14
1014.01 1014.28 1014.30 1014.27 1014.34 1014.42 1014.00 1013.60 1013.62 1013.87 1014.38 1015.15 1015.65 1015.82 1015.95 1015.85 1015.55 1015.52 1015.58 1015.67 1015.71 1015.86
1013.40 1013.87 1014.01 1014.31 1014.11 1013.52 1013.77 1015.40 1013.18 1015.20 1014.29 1014.48 1015.06 1015.54 1015.81 1015.61 1015.54 1015.64 1015.64 1015.60 1015.71 1015.82
1012.67 1013.28 1013.51 1013.91 1013.94 1013.56 1013.13 1013.67 1017.02 1015.38 1015.62 1015.19 1014.93 1015.43 1015.94 1015.96 1015.86 1015.97 1016.08 1015.80 1015.68 1015.77
1011.78 1012.32 1012.74 1013.32 1013.50 1013.61 1013.95 1013.36 1014.43 1015.56 1015.87 1015.01 1015.06 1015.30 1015.71 1015.85 1015.74 1016.14 1016.23 1016.02 1015.86 1015.74
1010.85 1011.42 1012.10 1012.56 1013.02 1013.14 1013.52 1013.83 1013.93 1014.11 1014.31 1014.70 1014.96 1015.15 1015.50 1015.61 1015.52 1015.54 1015.98 1016.38 1016.31 1015.59
1010.79 1011.03 1011.30 1011.67 1012.42 1012.88 1013.06 1013.43 1013.69 1013.97 1014.27 1014.54 1014.65 1014.94 1015.15 1015.15 1015.12 1015.20 1015.37 1015.70 1015.46 1015.30
1010.02 1010.33 1011.29 1011.25 1011.58 1012.47 1013.07 1013.45 1013.75 1014.03 1014.18 1014.37 1014.46 1014.42 1014.48 1014.47 1014.70 1015.05 1015.20 1015.12 1015.05 1014.84
1010.45 1010.54 1010.92 1011.20 1011.33 1011.87 1012.44 1012.69 1013.17 1013.47 1013.76 1013.87 1013.98 1013.74 1013.68 1013.79 1014.08 1014.46 1014.77 1014.92 1014.70 1014.70
1008.99 1010.51 1010.81 1010.47 1010.60 1011.23 1011.66 1012.02 1012.34 1012.59 1012.92 1013.14 1013.23 1013.31 1013.30 1013.31 1013.56 1013.92 1014.29 1014.39 1014.50 1014.57
1009.59 1010.35 1010.30 1010.09 1010.23 1010.65 1011.01 1011.37 1011.59 1011.81 1011.95 1012.16 1012.31 1012.54 1012.84 1013.13 1013.21 1013.32 1013.75 1013.93 1014.21 1014.46
1009.67 1009.87 1009.73 1009.83 1010.01 1010.27 1010.79 1011.05 1011.13 1011.14 1011.32 1011.56 1011.68 1011.88 1012.22 1012.72 1013.02 1013.05 1013.31 1013.59 1013.96 1014.36
1008.87 1009.31 1009.62 1009.83 1009.95 1010.10 1010.32 1010.46 1010.58 1010.64 1010.71 1010.75 1010.93 1011.16 1011.65 1012.22 1012.40 1012.70 1013.20 1013.27 1014.31 1014.48
1008.92 1009.40 1009.62 1009.78 1009.81 1009.95 1010.17 1010.27 1010.32 1010.21 1010.14 1010.25 1010.52 1010.72 1011.14 1011.53 1011.80 1012.02 1012.66 1013.16 1013.96 1014.88
Wind_Speed
8 4 5 5 3 2 4 6 10 8 8 5 5 4 4 4 5 2 1 4 2 2
9 8 8 6 5 2 4 5 11 10 6 8 4 5 4 3 5 4 4 5 5 2
10 10 7 4 6 6 2 9 12 4 6 6 6 5 3 4 4 3 2 2 4 4
10 11 10 8 6 3 3 1 6 4 10 5 5 6 5 6 3 2 6 5 4 4
14 13 13 9 8 7 8 6 8 13 9 3 4 5 5 6 6 6 8 5 7 4
14 13 12 11 10 10 10 12 9 4 5 6 7 6 6 7 7 6 4 4 13 4
14 12 13 10 12 11 7 9 8 8 8 9 8 8 8 9 8 6 7 7 6 5
2 10 12 9 7 9 9 8 9 9 10 10 9 9 9 9 7 8 8 7 5 6
10 13 10 8 7 8 9 11 9 10 10 10 9 13 13 11 8 7 7 7 6 6
9 10 11 9 9 10 12 12 12 12 12 12 12 13 9 15 11 8 8 9 7 4
5 8 8 9 9 10 10 11 11 12 13 12 12 14 13 12 10 8 8 6 6 6
5 6 6 8 10 10 10 11 11 12 13 14 13 13 16 11 10 8 7 6 6 4
4 5 6 7 8 9 9 10 9 11 13 16 15 12 14 13 9 7 7 8 7 10
5 5 6 7 5 6 7 9 10 10 11 13 15 13 13 16 11 8 6 6 6 5
Wind_Direction
208 184 219 221 259 288 229 218 162 173 173 195 183 213 207 263 243 11 238 252 334 320
198 205 204 205 221 171 285 257 170 177 186 147 185 240 175 240 283 151 245 268 243 297
201 199 237 248 215 218 152 86 272 232 158 157 171 220 230 278 256 281 287 311 45 324
192 195 212 217 223 173 334 337 123 23 281 213 185 197 193 267 321 314 273 257 261 258
184 193 196 203 214 181 167 239 222 189 209 228 243 219 194 237 261 200 240 274 272 244
184 191 198 195 203 208 194 201 233 210 201 223 239 233 217 212 245 243 204 211 267 203
188 192 196 203 188 214 213 204 213 215 213 225 220 223 228 228 218 247 258 219 252 210
199 193 206 209 204 192 210 218 216 225 220 223 236 237 225 232 210 215 247 254 274 212
179 242 218 210 212 204 211 211 217 221 227 227 227 234 226 214 220 200 221 248 268 265
169 215 223 217 219 215 218 218 217 217 220 227 230 250 232 212 215 206 212 219 235 251
305 261 242 230 232 232 228 221 221 222 224 224 230 211 204 211 216 208 216 232 226 223
231 254 262 251 245 231 229 232 230 230 224 223 230 203 196 189 209 220 216 220 236 299
319 287 270 263 256 251 242 238 235 236 234 231 225 216 199 197 206 212 222 226 116 53
278 284 282 278 271 257 244 245 247 244 240 237 241 227 202 198 220 212 225 185 150 101